EUTELSAT 113 WEST A

Last updated on Tue Apr 16 2024 00:02:36 GMT+0000 (Coordinated Universal Time)

1 29162U 06020A 24106.55838170 -.00000278 00000+0 00000+0 0 9994 2 29162 0.3036 95.2688 0004953 302.0448 163.0438 0.98938736 65520
UTC large
Height (km)
Speed (km/s)
/
Latitude / Longitude
Inclination (degrees)
Orbital Period (minutes)
Azimuth
Elevation
Range (km)
Doppler Factor

Next 0 passes for location: London (51.5072 / 0.1276)

Sorry there are no passes over London.